Powrót do katalogu

TEVEL2-1

AktywnyKrótkofalarstwoSSO
NORAD 63217·PAYLOAD·🇮🇱 Israel

Wystrzelony Mar 15, 2025 z Vandenberg Space Force Base

Loading…

Następne Przeloty (najbliższe 24 godziny)

TLE

ŚwieżeSource: AMSAT

Epoka: Sep 13, 2026, 16:33 UTC

1 63217U 25052H   26256.69026919  .00014307  00000-0  40231-3 0  9994
2 63217  97.3738 152.7684 0003718 133.3229 226.8326 15.36601017 83676

Śledź TEVEL2-1 w czasie rzeczywistym z AllMySat

Download on the App Store